Weather History for KFET - January, 2013

Change the Weather History Date:

Sunday, January 6, 2013

  Actual Average Record
Temperature  
Mean Temperature 20 °F -  
Max Temperature 31 °F 30 °F 56 °F (1961)
Min Temperature 9 °F 11 °F -17 °F (1971)
Degree Days  
Heating Degree Days 45    
Moisture  
Dew Point 18 °F    
Average Humidity 82    
Maximum Humidity 95    
Minimum Humidity 69    
Precipitation  
Precipitation 0.00 in - - ()
Sea Level Pressure  
Sea Level Pressure 30.23 in    
Wind  
Wind Speed 7 mph (SSW)    
Max Wind Speed 16 mph    
Max Gust Speed 24 mph    
Visibility 10 miles    
Events      
Averages and records for this station are not official NWS values.
T = Trace of Precipitation, MM = Missing Value Source: NWS Daily Summary

Daily Weather History Graph

Daily Weather History Graph

Search for Another Location

Airport or City:

Trip Planner

Search our weather history database for the weather conditions in past years. The results will help you decide how hot, cold, wet, or windy it might be!

Date:

Astronomy

Jan. 06, 2013 Rise Set
Actual Time 7:52 AM CST 5:12 PM CST
Civil Twilight 7:21 AM CST 5:43 PM CST
Nautical Twilight 6:46 AM CST 6:17 PM CST
Astronomical Twilight 6:13 AM CST 6:51 PM CST
Moon 2:06 AM CST (1/6) 12:41 PM CST (1/6)
Length of Visible Light 10h 21m
Length of Day
9h 19m
Waning Crescent, 33% of the Moon is Illuminated
Jan 6
Waning Crescent
Jan 11
New
Jan 18
First Quarter
Jan 26
Full
Feb 3
Last Quarter

Hourly Weather History & Observations

Time (CST) Temp. Windchill Dew Point Humidity Pressure Visibility Wind Dir Wind Speed Gust Speed Precip Events Conditions
12:15 AM 22.6 °F 9.2 °F 19.4 °F 87% 30.21 in 10.0 mi NW 16.1 mph - N/A   Overcast
12:35 AM 22.8 °F 9.9 °F 19.4 °F 87% 30.21 in 10.0 mi NW 15.0 mph - N/A   Overcast
12:55 AM 23.0 °F 10.1 °F 19.4 °F 86% 30.22 in 10.0 mi NW 15.0 mph 24.2 mph N/A   Overcast
1:15 AM 22.8 °F 12.2 °F 19.4 °F 87% 30.22 in 10.0 mi WNW 10.4 mph - N/A   Overcast
1:35 AM 21.4 °F 8.0 °F 17.8 °F 86% 30.22 in 10.0 mi NW 15.0 mph - N/A   Mostly Cloudy
1:55 AM 19.9 °F 8.6 °F 16.7 °F 87% 30.22 in 10.0 mi WNW 10.4 mph - N/A   Scattered Clouds
2:15 AM 19.2 °F 9.3 °F 16.2 °F 88% 30.23 in 10.0 mi WNW 8.1 mph - N/A   Clear
2:35 AM 16.5 °F 6.0 °F 13.8 °F 89% 30.23 in 10.0 mi WNW 8.1 mph - N/A   Clear
2:55 AM 15.6 °F 5.9 °F 13.5 °F 91% 30.25 in 10.0 mi West 6.9 mph - N/A   Clear
3:15 AM 15.3 °F 4.4 °F 13.3 °F 92% 30.26 in 10.0 mi West 8.1 mph - N/A   Clear
3:35 AM 15.3 °F 5.4 °F 13.3 °F 92% 30.26 in 10.0 mi West 6.9 mph - N/A   Clear
3:55 AM 13.8 °F 6.2 °F 11.8 °F 92% 30.26 in 10.0 mi West 4.6 mph - N/A   Clear
4:15 AM 13.5 °F 5.8 °F 11.3 °F 91% 30.25 in 10.0 mi West 4.6 mph - N/A   Clear
4:35 AM 11.7 °F 3.7 °F 9.5 °F 91% 30.26 in 10.0 mi West 4.6 mph - N/A   Clear
4:55 AM 11.3 °F - 9.5 °F 92% 30.26 in 10.0 mi Calm Calm - N/A   Clear
5:15 AM 12.2 °F 6.1 °F 10.4 °F 92% 30.25 in 10.0 mi WSW 3.5 mph - N/A   Clear
5:35 AM 14.4 °F 6.9 °F 12.0 °F 90% 30.25 in 10.0 mi WSW 4.6 mph - N/A   Clear
5:55 AM 13.6 °F - 11.1 °F 90% 30.25 in 10.0 mi Calm Calm - N/A   Clear
6:15 AM 10.4 °F 4.0 °F 8.4 °F 92% 30.26 in 10.0 mi WNW 3.5 mph - N/A   Clear
6:35 AM 12.0 °F - 10.2 °F 92% 30.26 in 10.0 mi Calm Calm - N/A   Clear
6:55 AM 11.7 °F - 9.7 °F 92% 30.26 in 10.0 mi Calm Calm - N/A   Clear
7:15 AM 9.5 °F - 7.7 °F 92% 30.27 in 10.0 mi Calm Calm - N/A   Clear
7:35 AM 9.7 °F - 8.1 °F 93% 30.27 in 10.0 mi Calm Calm - N/A   Clear
7:55 AM 9.1 °F - 7.0 °F 91% 30.28 in 10.0 mi Calm Calm - N/A   Clear
8:15 AM 10.0 °F - 8.4 °F 93% 30.28 in 10.0 mi Calm Calm - N/A   Clear
8:35 AM 10.8 °F - 9.5 °F 95% 30.28 in 10.0 mi Calm Calm - N/A   Clear
8:55 AM 11.1 °F - 8.8 °F 90% 30.29 in 10.0 mi Calm Calm - N/A   Clear
9:15 AM 11.5 °F - 8.8 °F 89% 30.29 in 10.0 mi Calm Calm - N/A   Clear
9:35 AM 15.1 °F - 12.6 °F 90% 30.29 in 10.0 mi Calm Calm - N/A   Clear
9:55 AM 17.4 °F - 13.8 °F 86% 30.30 in 10.0 mi Calm Calm - N/A   Clear
10:15 AM 19.2 °F - 14.2 °F 81% 30.31 in 10.0 mi Calm Calm - N/A   Clear
10:35 AM 21.0 °F 16.2 °F 15.4 °F 79% 30.31 in 10.0 mi SW 3.5 mph - N/A   Clear
10:55 AM 22.8 °F - 16.5 °F 77% 30.31 in 10.0 mi Calm Calm - N/A   Clear
11:15 AM 23.4 °F - 16.7 °F 76% 30.31 in 10.0 mi Calm Calm - N/A   Clear
11:35 AM 23.9 °F - 17.2 °F 76% 30.29 in 10.0 mi Calm Calm - N/A   Clear
11:55 AM 26.2 °F - 18.5 °F 73% 30.29 in 10.0 mi Calm Calm - N/A   Clear
12:15 PM 26.6 °F - 19.2 °F 74% 30.28 in 10.0 mi Calm Calm - N/A   Clear
12:35 PM 27.3 °F - 19.4 °F 72% 30.27 in 10.0 mi Calm Calm - N/A   Clear
12:55 PM 28.9 °F - 20.3 °F 70% 30.26 in 10.0 mi Calm Calm - N/A   Clear
1:15 PM 29.7 °F - 20.8 °F 70% 30.25 in 10.0 mi Calm Calm - N/A   Clear
1:35 PM 30.0 °F - 21.6 °F 71% 30.24 in 10.0 mi Calm Calm - N/A   Clear
1:55 PM 30.2 °F 26.7 °F 22.1 °F 72% 30.24 in 10.0 mi SSW 3.5 mph - N/A   Clear
2:15 PM 30.7 °F 27.3 °F 21.7 °F 69% 30.23 in 10.0 mi SSW 3.5 mph - N/A   Clear
2:35 PM 30.9 °F 26.2 °F 22.8 °F 72% 30.23 in 10.0 mi SSW 4.6 mph - N/A   Clear
2:55 PM 31.1 °F 25.4 °F 22.3 °F 70% 30.23 in 10.0 mi SSW 5.8 mph - N/A   Clear
3:15 PM 30.7 °F 24.9 °F 23.0 °F 73% 30.23 in 10.0 mi South 5.8 mph - N/A   Clear
3:35 PM 30.7 °F 22.6 °F 23.0 °F 73% 30.23 in 10.0 mi South 9.2 mph - N/A   Clear
3:55 PM 30.7 °F 24.9 °F 23.0 °F 73% 30.23 in 10.0 mi South 5.8 mph - N/A   Clear
4:35 PM 29.5 °F 24.5 °F 22.6 °F 76% 30.21 in 10.0 mi SSE 4.6 mph - N/A   Clear
4:55 PM 28.8 °F 25.0 °F 22.1 °F 76% 30.21 in 10.0 mi SSE 3.5 mph - N/A   Clear
5:15 PM 28.0 °F 22.8 °F 21.7 °F 77% 30.20 in 10.0 mi SSE 4.6 mph - N/A   Clear
5:35 PM 27.1 °F 21.8 °F 21.4 °F 79% 30.19 in 10.0 mi SSE 4.6 mph - N/A   Clear
5:55 PM 28.0 °F 20.8 °F 22.1 °F 78% 30.20 in 10.0 mi South 6.9 mph - N/A   Clear
6:15 PM 29.7 °F 22.8 °F 22.8 °F 76% 30.19 in 10.0 mi South 6.9 mph - N/A   Clear
6:35 PM 30.0 °F 21.1 °F 23.0 °F 75% 30.18 in 10.0 mi South 10.4 mph - N/A   Clear
6:55 PM 30.2 °F 20.2 °F 23.5 °F 76% 30.17 in 10.0 mi South 12.7 mph - N/A   Clear
7:15 PM 30.6 °F 20.2 °F 23.5 °F 75% 30.16 in 10.0 mi South 13.8 mph 18.4 mph N/A   Clear
7:35 PM 30.6 °F 20.2 °F 23.9 °F 76% 30.15 in 10.0 mi South 13.8 mph 19.6 mph N/A   Clear
7:55 PM 30.6 °F 20.2 °F 23.9 °F 76% 30.14 in 10.0 mi South 13.8 mph - N/A   Clear
8:15 PM 30.2 °F 19.8 °F 23.9 °F 77% 30.13 in 10.0 mi South 13.8 mph 18.4 mph N/A   Clear
8:35 PM 29.7 °F 20.1 °F 23.7 °F 79% 30.13 in 10.0 mi South 11.5 mph 18.4 mph N/A   Clear
8:55 PM 29.3 °F 19.1 °F 23.7 °F 80% 30.13 in 10.0 mi South 12.7 mph - N/A   Clear
9:15 PM 28.9 °F 19.2 °F 23.7 °F 81% 30.13 in 10.0 mi South 11.5 mph - N/A   Clear
9:55 PM 28.4 °F 19.1 °F 23.0 °F 80% 30.12 in 10.0 mi South 10.4 mph - N/A   Clear
10:15 PM 28.2 °F 18.9 °F 22.6 °F 80% 30.11 in 10.0 mi South 10.4 mph 17.3 mph N/A   Clear
10:35 PM 27.5 °F 18.6 °F 22.3 °F 81% 30.11 in 10.0 mi South 9.2 mph 16.1 mph N/A   Clear
10:55 PM 28.2 °F 18.3 °F 22.1 °F 78% 30.10 in 10.0 mi South 11.5 mph 19.6 mph N/A   Clear
11:35 PM 28.4 °F 19.1 °F 22.1 °F 77% 30.10 in 10.0 mi South 10.4 mph 17.3 mph N/A   Clear
11:55 PM 29.3 °F 19.6 °F 23.0 °F 77% 30.09 in 10.0 mi South 11.5 mph 19.6 mph N/A   Clear